Location: Chuathbaluk
(61.5726°N, 159.2454°W)
Time: 13:12:11
(UTC+00:00)

NUDT-PHONESAT - Pass Details

Date: 26 January 2021
Orbit: 480 x 498 km, 97.4° (Epoch: 01 March)

Event Time Altitude Azimuth Distance (km) Brightness Sun altitude
Rises 16:04:48 0° 26° (NNE) 2,611 ? -21.5°
Reaches altitude 10° 16:07:53 10° 54° (NE) 1,719 ? -21.2°
Maximum altitude 16:09:43 13° 84° (E) 1,522 ? -21.0°
Drops below altitude 10° 16:11:32 10° 114° (ESE) 1,709 ? -20.7°
Sets 16:14:35 0° 142° (SE) 2,583 ? -20.4°
